Weather History for Crockett, TX

Change the Weather History Date:

Wednesday, March 20, 2013

  Actual Average (KLFK) Record (KLFK)
Temperature  
Mean Temperature 58 °F 60 °F  
Max Temperature 69 °F 72 °F 89 °F (1907)
Min Temperature 48 °F 49 °F 25 °F (1965)
Degree Days  
Heating Degree Days 6 6  
Month to date heating degree days 156  
Since 1 July heating degree days 1790  
Cooling Degree Days 0 1  
Month to date cooling degree days 20  
Year to date cooling degree days 39  
Growing Degree Days 8 (Base 50)    
Moisture  
Dew Point 42 °F    
Average Humidity 62    
Maximum Humidity 94    
Minimum Humidity 21    
Precipitation  
Precipitation 0.52 in 0.12 in 1.61 in (1972)
Month to date precipitation 2.50  
Year to date precipitation 10.55  
Snow  
Snow 0.00 in - - ()
Month to date snowfall  
Since 1 July snowfall  
Snow Depth -    
Sea Level Pressure  
Sea Level Pressure 30.17 in    
Wind  
Wind Speed 9 mph (NE)    
Max Wind Speed 18 mph    
Max Gust Speed 22 mph    
Visibility 9 miles    
Events Rain , Thunderstorm    
T = Trace of Precipitation, MM = Missing Value Source: NWS Daily Summary

Daily Weather History Graph

Daily Weather History Graph

Search for Another Location

Airport:

Trip Planner

Search our weather history database for the weather conditions in past years. The results will help you decide how hot, cold, wet, or windy it might be!

Date:

Astronomy

Mar. 20, 2013 Rise Set
Actual Time 7:25 AM CDT 7:33 PM CDT
Civil Twilight 7:00 AM CDT 7:57 PM CDT
Nautical Twilight 6:32 AM CDT 8:25 PM CDT
Astronomical Twilight 6:04 AM CDT 8:54 PM CDT
Moon 1:29 PM CDT (3/20) 2:45 AM CDT (3/20)
Length of Visible Light 12h 56m
Length of Day
12h 08m
First Quarter, 59% of the Moon is Illuminated
Mar 20
First Quarter
Mar 27
Full
Apr 2
Last Quarter
Apr 10
New
Apr 18
First Quarter

Hourly Weather History & Observations

Time (CDT) Temp. Dew Point Humidity Pressure Visibility Wind Dir Wind Speed Gust Speed Precip Events Conditions
12:15 AM 53.6 °F 48.2 °F 82% 30.16 in 1.2 mi NNE 18.4 mph 21.9 mph 0.24 in Rain , Thunderstorm Heavy Rain
12:35 AM 51.8 °F 48.2 °F 88% 30.14 in 3.0 mi NE 13.8 mph 19.6 mph 0.31 in Rain , Thunderstorm Thunderstorms and Rain
12:55 AM 51.8 °F 50.0 °F 94% 30.11 in 3.0 mi NE 16.1 mph - 0.35 in Rain , Thunderstorm Rain
1:15 AM 51.8 °F 50.0 °F 94% 30.13 in 4.0 mi NNE 8.1 mph - 0.03 in Rain Light Rain
1:55 AM 51.8 °F 48.2 °F 88% 30.16 in 6.0 mi South 4.6 mph - 0.05 in Thunderstorm Light Drizzle
2:15 AM 51.8 °F 50.0 °F 94% 30.15 in 5.0 mi East 4.6 mph - 0.02 in Rain Rain
2:35 AM 51.8 °F 50.0 °F 94% 30.17 in 4.0 mi NNE 5.8 mph - 0.03 in Rain , Thunderstorm Light Rain
2:55 AM 51.8 °F 50.0 °F 94% 30.16 in 4.0 mi NE 6.9 mph - 0.05 in Rain Light Rain
3:15 AM 51.8 °F 50.0 °F 94% 30.15 in 5.0 mi SE 5.8 mph - 0.02 in Rain Light Rain
3:35 AM 51.8 °F 50.0 °F 94% 30.11 in 4.0 mi SSE 11.5 mph - 0.04 in Rain Light Rain
3:55 AM 51.8 °F 50.0 °F 94% 30.12 in 6.0 mi East 4.6 mph - 0.05 in Rain Light Rain
4:15 AM 51.8 °F 50.0 °F 94% 30.13 in 6.0 mi North 11.5 mph - 0.01 in   Overcast
4:35 AM 51.8 °F 50.0 °F 94% 30.12 in 10.0 mi NE 8.1 mph - 0.01 in   Overcast
4:55 AM 51.8 °F 50.0 °F 94% 30.13 in 10.0 mi NE 12.7 mph - 0.01 in   Overcast
5:15 AM 51.8 °F 50.0 °F 94% 30.14 in 10.0 mi NE 11.5 mph - N/A   Overcast
5:35 AM 51.8 °F 48.2 °F 88% 30.15 in 10.0 mi NNE 10.4 mph - N/A   Overcast
5:55 AM 51.8 °F 48.2 °F 88% 30.17 in 10.0 mi NE 9.2 mph - N/A   Overcast
6:15 AM 50.0 °F 48.2 °F 94% 30.18 in 10.0 mi NE 6.9 mph - N/A   Overcast
6:35 AM 50.0 °F 48.2 °F 94% 30.20 in 10.0 mi NE 6.9 mph - N/A   Mostly Cloudy
6:55 AM 50.0 °F 46.4 °F 87% 30.21 in 10.0 mi NE 8.1 mph - N/A   Partly Cloudy
7:15 AM 48.2 °F 46.4 °F 93% 30.22 in 10.0 mi NE 8.1 mph - N/A   Clear
7:35 AM 48.2 °F 46.4 °F 93% 30.23 in 10.0 mi NE 6.9 mph - N/A   Clear
7:55 AM 48.2 °F 46.4 °F 93% 30.24 in 10.0 mi NNE 6.9 mph - N/A   Clear
8:15 AM 48.2 °F 46.4 °F 93% 30.24 in 9.0 mi NNE 5.8 mph - N/A   Clear
8:35 AM 50.0 °F 46.4 °F 87% 30.25 in 10.0 mi NE 8.1 mph - N/A   Clear
8:55 AM 51.8 °F 44.6 °F 76% 30.26 in 10.0 mi NNE 10.4 mph - N/A   Clear
9:15 AM 53.6 °F 42.8 °F 67% 30.27 in 10.0 mi NE 9.2 mph - 0.01 in   Clear
9:35 AM 53.6 °F 42.8 °F 67% 30.27 in 10.0 mi NE 8.1 mph - 0.01 in   Clear
9:55 AM 55.4 °F 42.8 °F 63% 30.28 in 10.0 mi NNE 8.1 mph - 0.01 in   Clear
10:15 AM 55.4 °F 42.8 °F 63% 30.28 in 10.0 mi NE 8.1 mph - N/A   Clear
10:35 AM 57.2 °F 42.8 °F 59% 30.28 in 10.0 mi NNE 9.2 mph - N/A   Clear
10:55 AM 57.2 °F 44.6 °F 63% 30.29 in 10.0 mi NE 5.8 mph - N/A   Clear
11:15 AM 60.8 °F 42.8 °F 52% 30.28 in 10.0 mi NNE 10.4 mph - N/A   Clear
11:35 AM 62.6 °F 42.8 °F 48% 30.28 in 10.0 mi NNE 8.1 mph - N/A   Clear
11:55 AM 62.6 °F 42.8 °F 48% 30.27 in 10.0 mi NE 9.2 mph - N/A   Clear
12:15 PM 64.4 °F 41.0 °F 42% 30.26 in 10.0 mi NE 10.4 mph - N/A   Clear
12:35 PM 66.2 °F 41.0 °F 40% 30.26 in 10.0 mi NNE 11.5 mph 16.1 mph N/A   Clear
12:55 PM 66.2 °F 37.4 °F 35% 30.25 in 10.0 mi NNE 15.0 mph 18.4 mph N/A   Clear
1:15 PM 66.2 °F 37.4 °F 35% 30.24 in 10.0 mi NE 15.0 mph 19.6 mph N/A   Clear
1:35 PM 68.0 °F 32.0 °F 26% 30.23 in 10.0 mi NNE 16.1 mph 21.9 mph N/A   Clear
1:55 PM 68.0 °F 32.0 °F 26% 30.23 in 10.0 mi NE 12.7 mph 19.6 mph N/A   Clear
2:15 PM 69.8 °F 33.8 °F 27% 30.21 in 10.0 mi NE 12.7 mph 21.9 mph N/A   Clear
2:35 PM 69.8 °F 33.8 °F 27% 30.19 in 10.0 mi NE 11.5 mph - N/A   Clear
2:55 PM 69.8 °F 32.0 °F 25% 30.18 in 10.0 mi NE 11.5 mph 16.1 mph N/A   Clear
3:15 PM 69.8 °F 32.0 °F 25% 30.17 in 10.0 mi NE 13.8 mph 17.3 mph N/A   Clear
3:35 PM 69.8 °F 32.0 °F 25% 30.16 in 10.0 mi NNE 8.1 mph - N/A   Clear
3:55 PM 69.8 °F 32.0 °F 25% 30.15 in 9.0 mi NE 10.4 mph 17.3 mph N/A   Clear
4:15 PM 69.8 °F 32.0 °F 25% 30.15 in 10.0 mi NNE 11.5 mph 19.6 mph N/A   Clear
4:55 PM 69.8 °F 30.2 °F 23% 30.14 in 10.0 mi Calm Calm - N/A   Clear
5:15 PM 69.8 °F 32.0 °F 25% 30.14 in 10.0 mi North 9.2 mph - N/A   Clear
5:35 PM 69.8 °F 28.4 °F 21% 30.13 in 10.0 mi NNE 3.5 mph - N/A   Clear
5:55 PM 69.8 °F 32.0 °F 25% 30.13 in 10.0 mi NE 9.2 mph - N/A   Clear
6:15 PM 68.0 °F 30.2 °F 24% 30.13 in 10.0 mi North 4.6 mph - N/A   Clear
6:35 PM 66.2 °F 32.0 °F 28% 30.13 in 10.0 mi North 4.6 mph - N/A   Clear
6:55 PM 66.2 °F 33.8 °F 30% 30.12 in 10.0 mi NNE 3.5 mph - N/A   Clear
7:15 PM 62.6 °F 35.6 °F 37% 30.11 in 10.0 mi NNE 4.6 mph - N/A   Clear
7:35 PM 60.8 °F 37.4 °F 42% 30.11 in 10.0 mi Calm Calm - N/A   Clear
7:55 PM 55.4 °F 39.2 °F 54% 30.11 in 10.0 mi Calm Calm - N/A   Clear
8:15 PM 53.6 °F 41.0 °F 62% 30.10 in 10.0 mi Calm Calm - N/A   Clear
8:35 PM 53.6 °F 39.2 °F 58% 30.10 in 10.0 mi Calm Calm - N/A   Clear
8:55 PM 51.8 °F 42.8 °F 71% 30.11 in 10.0 mi Calm Calm - N/A   Clear
9:15 PM 51.8 °F 42.8 °F 71% 30.11 in 10.0 mi Calm Calm - N/A   Clear
9:35 PM 51.8 °F 42.8 °F 71% 30.11 in 10.0 mi Calm Calm - N/A   Clear
9:55 PM 51.8 °F 39.2 °F 62% 30.11 in 10.0 mi Calm Calm - N/A   Clear
10:15 PM 51.8 °F 37.4 °F 58% 30.11 in 10.0 mi Calm Calm - N/A   Clear
10:35 PM 50.0 °F 39.2 °F 66% 30.11 in 10.0 mi Calm Calm - N/A   Clear
10:55 PM 50.0 °F 42.8 °F 76% 30.10 in 10.0 mi Calm Calm - N/A   Clear
11:15 PM 51.8 °F 42.8 °F 71% 30.09 in 10.0 mi Calm Calm - N/A   Clear
11:35 PM 53.6 °F 35.6 °F 51% 30.09 in 10.0 mi Calm Calm - N/A   Clear
11:55 PM 55.4 °F 33.8 °F 44% 30.08 in 10.0 mi ENE 4.6 mph - N/A   Clear